Tiempo atmosférico en la estación meteorológica de Cabo Vilan, A Coruña (50 m.)



Fecha
DESCASC
Temp. máxima en grados centígrados (hora)
DESCASC
Temp. mínima en grados centígrados (hora)
DESCASC
Temp. media en grados centígrados
DESCASC
Racha de viento máxima en m/sg (hora)
DESCASC
Velocidad máxima media en intervalos de 10 minutos(hora)
DESCASC
Precipitaciones diarias en mm
DESCASC
Precipitaciones de 00:00 a 06:00 en mm
DESCASC
Precipitaciones de 06:00 a 12:00 en mm
DESCASC
Precipitaciones de 12:00 a 18:00 en mm
DESCASC
Precipitaciones de 18:00 a 24:00 en mm
DESCASC
13-01-2021 12.5 (14:30) 5.5 (00:10) 9 6.11 (17:10) 4.17 (01:00) 0 0 0 0 0
12-01-2021 12 (14:40) 5.1 (08:40) 8.5 9.44 (00:40) 6.67 (04:50) 0 0 0 0 0
11-01-2021 11.2 (12:50) 7.5 (23:50) 9.3 15.28 (14:00) 11.67 (19:00) 0 0 0 0 0
10-01-2021 10.6 (13:50) 6.2 (00:30) 8.4 30.83 (00:10) 23.61 (00:50) 0.4 0.4 0 0 0
09-01-2021 -- (--) -- (--) -- -- (--) -- (--) -- 1.6 0.8 -- 1
08-01-2021 9.2 (15:20) 4.1 (00:00) 6.6 18.89 (16:40) 14.17 (19:40) 5.6 0 0.3 0.1 5.2
07-01-2021 9.1 (16:10) 4.2 (00:00) 6.7 16.94 (18:50) 13.06 (20:50) 3.5 0.3 1.9 0.4 0.9
06-01-2021 9.1 (14:10) 4.1 (00:00) 6.6 12.22 (20:30) 9.17 (16:10) 0 0 0 0 0
05-01-2021 9.8 (13:20) 2.9 (00:00) 6.4 9.72 (19:20) 5.56 (16:40) 4.2 0.3 2.1 0.8 1
04-01-2021 9 (14:10) 3.2 (00:00) 6.1 13.33 (07:30) 9.17 (02:20) 3.6 0.6 2.1 0.5 0.4
03-01-2021 10.1 (13:00) 6.8 (00:00) 8.5 15.83 (14:30) 11.67 (18:40) 2.2 0.3 0.4 1.3 0.2
02-01-2021 9.9 (16:10) 5.1 (00:00) 7.5 15.28 (08:00) 10.83 (07:50) 7.2 0.6 1.9 2.5 2.2
01-01-2021 9.9 (13:30) 5.3 (00:00) 7.6 22.78 (15:30) 16.67 (15:30) 5.1 1.5 1.2 0.7 1.7
31-12-2020 11.5 (05:00) 6.7 (00:00) 9.1 18.06 (21:30) 12.78 (05:10) 5.1 1.3 1.7 1.1 1
30-12-2020 12.9 (14:20) 7.6 (00:00) 10.2 14.72 (16:30) 9.72 (22:30) 2.7 0.1 0.3 1.9 0.4
29-12-2020 10.6 (00:40) 5.3 (00:00) 8 20 (00:50) 14.44 (00:50) 3 1.6 0.1 0.6 0.7
28-12-2020 -- (--) -- (--) -- 22.22 (00:10) 14.44 (00:10) 2.3 0.4 0.6 1 0.3
27-12-2020 12.8 (13:30) 7 (00:00) 9.9 24.44 (18:50) 18.61 (18:50) 4.8 0 0 1.5 3.3
26-12-2020 10.7 (14:40) 5.2 (00:00) 7.9 11.11 (13:20) 9.17 (16:00) 0 0 0 0 0
25-12-2020 11.3 (14:30) 6.9 (00:00) 9.1 19.72 (02:00) 15.28 (01:30) 0 0 0 0 0
24-12-2020 11.7 (13:00) 8 (00:00) 9.8 20.83 (16:20) 16.39 (21:30) 2.2 0.2 0.3 1 0.7
23-12-2020 14.2 (02:10) 8.2 (00:00) 11.2 18.61 (01:50) 13.61 (01:50) 4.2 3.5 0.3 0.1 0.3
22-12-2020 -- (--) -- (--) -- 21.39 (13:50) 15.28 (22:30) 22.3 0.3 1.5 0.5 20
21-12-2020 15 (12:20) 14.1 (00:00) 14.6 19.17 (21:40) 12.5 (21:40) 2.9 2.2 0.3 0.4 0
20-12-2020 14.8 (23:50) 12 (00:00) 13.4 20.28 (21:00) 14.17 (16:50) 8.7 0.1 0 1.6 7
19-12-2020 14.3 (14:10) 10.9 (00:00) 12.6 16.39 (03:40) 11.11 (03:40) 0.2 0.1 0.1 0 0
18-12-2020 13.3 (14:50) 11.7 (00:00) 12.5 28.33 (18:20) 18.89 (18:20) 24.9 0.5 0 11.3 13.1

Gráficas

Temp. máximas Temp. mínimas Temp. medias Precipitaciones Rachas de viento máximas Velocidades máximas media en intervalos de 10 minutos

Datos horarios

Fecha y hora oficial Temperatura (ºC) Velocidad del viento (km/h) Dirección del viento Racha (km/h) Dirección de racha Precipitación (mm) Presión (hPa) Tendencia (hPa) Humedad (%)
2021-01-16 23:00:00 11.4 9 Sur 13 Sur 0 -- -- 97
2021-01-16 22:00:00 11.1 10 Sur 13 Sur 0 -- -- 97
2021-01-16 21:00:00 11.1 9 Sur 15 Sur 0 -- -- 96
2021-01-16 20:00:00 11 11 Sur 15 Sur 0 -- -- 96
2021-01-16 19:00:00 11.3 10 Sur 17 Sudoeste 0 -- -- 95
2021-01-16 18:00:00 11.5 12 Sudoeste 32 Sudoeste 0 -- -- 92
2021-01-16 17:00:00 11.9 13 Sudoeste 17 Sudoeste 0 -- -- 90
2021-01-16 16:00:00 11.8 12 Sur 17 Sur 0 -- -- 90
2021-01-16 15:00:00 11.9 12 Sudoeste 20 Sudoeste 0 -- -- 89
2021-01-16 14:00:00 12.1 14 Sudoeste 18 Sudoeste 0 -- -- 88
2021-01-16 13:00:00 11.7 12 Sudoeste 17 Sudoeste 0 -- -- 88
2021-01-16 12:00:00 11.7 10 Sur 17 Sur 0 -- -- 86
2021-01-16 11:00:00 9.5 13 Sur 18 Sur 0 -- -- 87
2021-01-16 10:00:00 8.2 15 Sur 18 Sur 0 -- -- 87
2021-01-16 09:00:00 8 12 Sur 17 Sudeste 0 -- -- 86
2021-01-16 08:00:00 7.7 13 Sur 18 Sudeste 0 -- -- 89
2021-01-16 07:00:00 7.2 13 Sur 19 Sudeste 0 -- -- 90
2021-01-16 06:00:00 6.6 14 Sudeste 17 Sudeste 0 -- -- 89
2021-01-16 05:00:00 7.4 8 Sur 14 Sudeste 0 -- -- 89
2021-01-16 04:00:00 7.8 7 Sur 12 Sudoeste 0 -- -- 86
2021-01-16 03:00:00 7.2 9 Sur 16 Sudeste 0 -- -- 88
2021-01-16 02:00:00 5.6 10 Sudeste 19 Sudeste 0 -- -- 94
2021-01-16 01:00:00 5.6 13 Sudeste 17 Sudeste 0 -- -- 93
2021-01-16 00:00:00 8.1 4 Sur 10 Sudeste 0 -- -- 90
2021-01-15 23:00:00 8 8 Sudeste 19 Este 0 -- -- 93
2021-01-15 22:00:00 7.4 14 Este 17 Este 0 -- -- 91
2021-01-15 21:00:00 7.7 8 Este 12 Nordeste 0 -- -- 86
2021-01-15 20:00:00 9.2 10 Nordeste 18 Nordeste 0 -- -- 87
2021-01-15 19:00:00 9.7 14 Nordeste 19 Norte 0 -- -- 84
2021-01-15 18:00:00 10.4 8 Norte 10 Nordeste 0 -- -- 78
2021-01-15 17:00:00 11.9 8 Norte 12 Nordeste 0 -- -- 78
2021-01-15 16:00:00 12.3 8 Nordeste 11 Norte 0 -- -- 82
2021-01-15 15:00:00 12.7 9 Norte 13 Nordeste 0 -- -- 85
2021-01-15 14:00:00 12.3 12 Nordeste 17 Nordeste 0 -- -- 85
2021-01-15 13:00:00 11.9 13 Nordeste 16 Nordeste 0 -- -- 90
2021-01-15 12:00:00 12.1 8 Nordeste 11 Nordeste 0 -- -- 92
2021-01-15 11:00:00 10.1 5 Este 13 Sudeste 0 -- -- 95
2021-01-15 10:00:00 8.3 13 Sudeste 16 Sudeste 0 -- -- 96
2021-01-15 09:00:00 8.2 12 Sudeste 16 Sudeste 0 -- -- 96
2021-01-15 08:00:00 8.7 14 Sudeste 16 Sudeste 0 -- -- 96
2021-01-15 07:00:00 9.3 8 Sudeste 12 Este 0 -- -- 96
2021-01-15 06:00:00 9.4 10 Sudeste 14 Sudeste 0 -- -- 96
2021-01-15 05:00:00 9.5 11 Sudeste 19 Sudeste 0 -- -- 97
2021-01-15 04:00:00 10 15 Sudeste 17 Sudeste 0.1 -- -- 97
2021-01-15 03:00:00 10.4 14 Este 17 Este 0.4 -- -- 97
2021-01-15 02:00:00 10.9 6 Nordeste 10 Nordeste 0 -- -- 96
2021-01-15 01:00:00 10.9 6 Sur 10 Sur 0 -- -- 96
2021-01-15 00:00:00 11 7 Sur 8 Sur 0.1 -- -- 95
2021-01-14 23:00:00 11 4 Sur 10 Sur 0 -- -- 93
2021-01-14 22:00:00 11 6 Sur 12 Sur 0 -- -- 93
2021-01-14 21:00:00 10.8 7 Sudeste 13 Sudeste 0 -- -- 93
2021-01-14 20:00:00 11.2 7 Sur 17 Sur 0 -- -- 92
2021-01-14 19:00:00 11.1 10 Sur 15 Sudoeste 0 -- -- 92
2021-01-14 18:00:00 11.4 11 Sudoeste 17 Sudoeste 0 -- -- 91
2021-01-14 17:00:00 11.7 14 Sudoeste 23 Sudoeste 0 -- -- 88
2021-01-14 16:00:00 11.4 18 Sudoeste 27 Sudoeste 0 -- -- 88
2021-01-14 15:00:00 11.5 19 Sudoeste 25 Sudoeste 0 -- -- 83
2021-01-14 14:00:00 12 19 Sudoeste 28 Sudoeste 0 -- -- 82
2021-01-14 13:00:00 12 20 Sudoeste 26 Sudoeste 0 -- -- 80
2021-01-14 12:00:00 11.6 15 Sudoeste 23 Sudoeste 0 -- -- 83
2021-01-14 11:00:00 10.6 15 Sur 23 Sur 0 -- -- 82
2021-01-14 10:00:00 9.7 17 Sur 20 Sur 0 -- -- 81
2021-01-14 09:00:00 9.5 17 Sur 21 Sur 0 -- -- 81
2021-01-14 08:00:00 9.7 14 Sur 21 Sur 0 -- -- 79
2021-01-14 07:00:00 9.7 14 Sur 21 Sur 0 -- -- 78
2021-01-14 06:00:00 9.8 13 Sur 19 Sur 0 -- -- 77
2021-01-14 05:00:00 9.7 15 Sur 23 Sur 0 -- -- 77
2021-01-14 04:00:00 9.7 16 Sur 22 Sur 0 -- -- 76
2021-01-14 03:00:00 9.5 16 Sur 20 Sur 0 -- -- 76
2021-01-14 02:00:00 9.4 13 Sudeste 18 Sudeste 0 -- -- 78
2021-01-14 01:00:00 9.4 12 Sudeste 16 Sudeste 0 -- -- 79
2021-01-14 00:00:00 9.9 8 Sur 22 Sudoeste 0 -- -- 76
2021-01-13 23:00:00 9.9 10 Sudoeste 17 Sudoeste 0 -- -- 76
2021-01-13 22:00:00 9.7 11 Sudoeste 20 Sur 0 -- -- 75
2021-01-13 21:00:00 9.5 6 Sudoeste 18 Oeste 0 -- -- 74
2021-01-13 20:00:00 9.6 5 Sudoeste 16 Oeste 0 -- -- 73
2021-01-13 19:00:00 9.5 4 Oeste 9 Oeste 0 -- -- 74
2021-01-13 18:00:00 9.5 7 Sudoeste 22 Oeste 0 -- -- 72
2021-01-13 17:00:00 10.2 11 Oeste 17 Oeste 0 -- -- 72
2021-01-13 16:00:00 10.6 4 Sudoeste 10 Oeste 0 -- -- 68
2021-01-13 15:00:00 11.9 5 Noroeste 14 Oeste 0 -- -- 64
2021-01-13 14:00:00 12.1 6 Norte 12 Noroeste 0 -- -- 65
2021-01-13 13:00:00 10.9 0 Calma 11 Sudoeste 0 -- -- 65
2021-01-13 12:00:00 9.5 7 Sudeste 17 Sudeste 0 -- -- 72
2021-01-13 11:00:00 8.4 10 Sudeste 14 Este 0 -- -- 77
2021-01-13 10:00:00 7.7 11 Sudeste 16 Este 0 -- -- 79
2021-01-13 09:00:00 7.4 10 Sudeste 14 Sudeste 0 -- -- 80
2021-01-13 08:00:00 7.3 10 Sudeste 13 Sudeste 0 -- -- 80
2021-01-13 07:00:00 7.3 9 Sudeste 12 Este 0 -- -- 80
2021-01-13 06:00:00 7.7 5 Este 12 Este 0 -- -- 78
2021-01-13 05:00:00 7.1 10 Este 13 Este 0 -- -- 80
2021-01-13 04:00:00 7.3 8 Este 13 Este 0 -- -- 79
2021-01-13 03:00:00 6.6 12 Este 19 Este 0 -- -- 83
2021-01-13 02:00:00 6.5 8 Este 15 Este 0 -- -- 82
2021-01-13 01:00:00 5.5 15 Este 17 Este 0 -- -- 83
2021-01-13 00:00:00 5.6 12 Sudeste 15 Sudeste 0 -- -- 84
2021-01-12 23:00:00 5.6 13 Este 17 Este 0 -- -- 82
2021-01-12 22:00:00 5.7 13 Este 17 Sudeste 0 -- -- 82
2021-01-12 21:00:00 7.2 14 Sudeste 17 Sudeste 0 -- -- 80
2021-01-12 20:00:00 7.6 11 Este 13 Este 0 -- -- 77
2021-01-12 19:00:00 8.4 7 Nordeste 16 Norte 0 -- -- 74
2021-01-12 18:00:00 9.4 13 Norte 18 Norte 0 -- -- 72
2021-01-12 17:00:00 10.7 9 Norte 14 Norte 0 -- -- 68
2021-01-12 16:00:00 11.3 10 Norte 17 Nordeste 0 -- -- 66
2021-01-12 15:00:00 11.6 9 Norte 16 Nordeste 0 -- -- 64
2021-01-12 14:00:00 10.7 8 Nordeste 14 Este 0 -- -- 67
2021-01-12 13:00:00 10.1 9 Este 19 Este 0 -- -- 69
2021-01-12 12:00:00 9 14 Este 21 Este 0 -- -- 72
2021-01-12 11:00:00 7.9 18 Este 22 Este 0 -- -- 71
2021-01-12 10:00:00 6.2 19 Este 26 Este 0 -- -- 73
2021-01-12 09:00:00 5.5 19 Este 23 Este 0 -- -- 78
2021-01-12 08:00:00 5.5 17 Este 23 Este 0 -- -- 80
2021-01-12 07:00:00 5.5 21 Este 25 Este 0 -- -- 80
2021-01-12 06:00:00 5.6 21 Este 27 Este 0 -- -- 79
2021-01-12 05:00:00 5.6 21 Este 28 Este 0 -- -- 77
2021-01-12 04:00:00 5.6 21 Este 25 Este 0 -- -- 79
2021-01-12 03:00:00 7 16 Este 25 Este 0 -- -- 74
2021-01-12 02:00:00 7 19 Este 34 Nordeste 0 -- -- 73
2021-01-12 01:00:00 7.7 21 Nordeste 34 Este 0 -- -- 73
2021-01-12 00:00:00 7.8 19 Nordeste 31 Este 0 -- -- 71
2021-01-11 23:00:00 7.7 22 Nordeste 32 Nordeste 0 -- -- 71
2021-01-11 22:00:00 8.7 22 Nordeste 43 Nordeste 0 -- -- 68
2021-01-11 21:00:00 9.3 27 Nordeste 43 Nordeste 0 -- -- 64
2021-01-11 20:00:00 9.6 33 Nordeste 44 Nordeste 0 -- -- 67
2021-01-11 19:00:00 9.8 42 Nordeste 50 Nordeste 0 -- -- 68
2021-01-11 18:00:00 10.1 39 Nordeste 52 Nordeste 0 -- -- 66
2021-01-11 17:00:00 10.3 35 Nordeste 51 Nordeste 0 -- -- 66
2021-01-11 16:00:00 10.5 32 Nordeste 49 Nordeste 0 -- -- 66
2021-01-11 15:00:00 10.3 31 Nordeste 51 Nordeste 0 -- -- 68
2021-01-11 14:00:00 10.6 35 Nordeste 55 Nordeste 0 -- -- 63
2021-01-11 13:00:00 10.8 30 Nordeste 43 Nordeste 0 -- -- 60
2021-01-11 12:00:00 10.7 18 Nordeste 41 Nordeste 0 -- -- 60
2021-01-11 11:00:00 8.7 18 Este 36 Nordeste 0 -- -- 70
2021-01-11 10:00:00 9.3 25 Nordeste 39 Nordeste 0 -- -- 62
2021-01-11 09:00:00 8.7 24 Nordeste 35 Este 0 -- -- 66
2021-01-11 08:00:00 8.7 21 Nordeste 43 Nordeste 0 -- -- 64
2021-01-11 07:00:00 9 23 Nordeste 41 Nordeste 0 -- -- 65
2021-01-11 06:00:00 8.9 21 Nordeste 40 Nordeste 0 -- -- 58
2021-01-11 05:00:00 8.8 26 Nordeste 40 Nordeste 0 -- -- 61
2021-01-11 04:00:00 8.6 27 Nordeste 49 Nordeste 0 -- -- 61
2021-01-11 03:00:00 8.7 33 Nordeste 49 Norte 0 -- -- 58
2021-01-11 02:00:00 8.6 28 Nordeste 54 Nordeste 0 -- -- 56
2021-01-11 01:00:00 8.6 32 Nordeste 52 Nordeste 0 -- -- 55
2021-01-11 00:00:00 8.8 35 Nordeste 68 Nordeste 0 -- -- 56
2021-01-10 23:00:00 8.7 35 Nordeste 60 Nordeste 0 -- -- 57
2021-01-10 22:00:00 8.8 39 Nordeste 74 Nordeste 0 -- -- 56
2021-01-10 21:00:00 8.7 41 Nordeste 75 Nordeste 0 -- -- 57
2021-01-10 20:00:00 9 44 Nordeste 75 Nordeste 0 -- -- 56
2021-01-10 19:00:00 9.2 50 Nordeste 80 Nordeste 0 -- -- 58
2021-01-10 18:00:00 9.3 48 Nordeste 75 Nordeste 0 -- -- 58
2021-01-10 17:00:00 9.5 55 Nordeste 83 Nordeste 0 -- -- 62
2021-01-10 16:00:00 9.7 63 Nordeste 85 Nordeste 0 -- -- 58
2021-01-10 15:00:00 9.7 66 Nordeste 86 Nordeste 0 -- -- 61
2021-01-10 14:00:00 10.1 73 Nordeste 91 Nordeste 0 -- -- 59
2021-01-10 13:00:00 10.1 69 Nordeste 90 Nordeste 0 -- -- 56
2021-01-10 12:00:00 10.1 74 Nordeste 89 Nordeste 0 -- -- 59
2021-01-10 11:00:00 9.5 63 Nordeste 88 Nordeste 0 -- -- 64
2021-01-10 10:00:00 9.5 70 Nordeste 86 Nordeste 0 -- -- 65
2021-01-10 09:00:00 9.2 60 Nordeste 89 Nordeste 0 -- -- 61
2021-01-10 08:00:00 9.1 72 Nordeste 91 Nordeste 0 -- -- 65
2021-01-10 07:00:00 9.3 72 Nordeste 87 Nordeste 0 -- -- 68
2021-01-10 06:00:00 8.4 70 Nordeste 97 Nordeste 0 -- -- 71
2021-01-10 05:00:00 9 69 Nordeste 93 Nordeste 0 -- -- 66
2021-01-10 04:00:00 7.7 45 Nordeste 96 Nordeste 0 -- -- 78
2021-01-10 03:00:00 9.3 81 Nordeste 103 Nordeste 0 -- -- 68
2021-01-10 02:00:00 9.1 78 Nordeste 102 Nordeste 0 -- -- 67
2021-01-10 01:00:00 8.8 78 Nordeste 111 Nordeste 0.4 -- -- 70
2021-01-10 00:00:00 9.1 86 Nordeste 105 Nordeste 0.1 -- -- 66
2021-01-09 23:00:00 7.2 77 Nordeste 105 Nordeste 0.1 -- -- 85
2021-01-09 22:00:00 7.8 76 Nordeste 95 Nordeste 0.2 -- -- 83
2021-01-09 21:00:00 7.1 82 Nordeste 104 Nordeste 0.5 -- -- 83
2021-01-09 20:00:00 7 81 Nordeste 109 Nordeste 0.1 -- -- 79
2021-01-09 19:00:00 7.7 86 Nordeste 105 Nordeste 0 -- -- 70
2021-01-09 18:00:00 7.1 64 Nordeste 91 Nordeste 0 -- -- 71
2021-01-09 17:00:00 -- 54 Nordeste -- -- -- -- -- --
2021-01-09 16:00:00 -- -- -- -- -- -- -- -- --
2021-01-09 15:00:00 -- -- -- -- -- -- -- -- --
2021-01-09 14:00:00 6.1 46 Nordeste 88 Nordeste 0.3 -- -- 78
2021-01-09 13:00:00 6.3 32 Nordeste 89 Nordeste 1.2 -- -- 81
2021-01-09 12:00:00 7.6 40 Nordeste 76 Nordeste 0.1 -- -- 80
2021-01-09 11:00:00 5.2 37 Nordeste 63 Nordeste 0.1 -- -- 82
2021-01-09 10:00:00 5.2 35 Nordeste 64 Nordeste 0 -- -- 83
2021-01-09 09:00:00 6.5 33 Nordeste 65 Nordeste 0 -- -- 81
2021-01-09 08:00:00 5.3 29 Nordeste 47 Nordeste 0 -- -- 82
2021-01-09 07:00:00 5.1 30 Nordeste 50 Nordeste 0.6 -- -- 88
2021-01-09 06:00:00 5.3 28 Nordeste 46 Nordeste 0 -- -- 84
2021-01-09 05:00:00 5.1 23 Nordeste 42 Nordeste 0 -- -- 86
2021-01-09 04:00:00 5.2 25 Nordeste 91 Nordeste 0.5 -- -- 89
2021-01-09 03:00:00 6.3 35 Nordeste 44 Norte 0 -- -- 80
2021-01-09 02:00:00 5.3 27 Nordeste 41 Nordeste 0.6 -- -- 85
2021-01-09 01:00:00 5 22 Nordeste 34 Este 0.5 -- -- 91
2021-01-09 00:00:00 4.4 17 Nordeste 61 Nordeste 3.8 -- -- 93
2021-01-08 23:00:00 5.4 26 Nordeste 62 Nordeste 0.5 -- -- 88
2021-01-08 22:00:00 5.8 25 Nordeste 48 Nordeste 0.1 -- -- 85
2021-01-08 21:00:00 5.4 23 Nordeste 67 Nordeste 0.8 -- -- 89
2021-01-08 20:00:00 7.9 33 Nordeste 66 Nordeste 0 -- -- 75
2021-01-08 19:00:00 7.8 48 Nordeste 64 Nordeste 0 -- -- 72
2021-01-08 18:00:00 8.2 48 Nordeste 58 Nordeste 0 -- -- 64
2021-01-08 17:00:00 8.4 43 Nordeste 68 Nordeste 0 -- -- 66
2021-01-08 16:00:00 8.7 42 Nordeste 55 Nordeste 0.1 -- -- 61
2021-01-08 15:00:00 8.6 39 Nordeste 48 Norte 0 -- -- 63
2021-01-08 14:00:00 8.4 39 Nordeste 48 Nordeste 0 -- -- 57
2021-01-08 13:00:00 8.2 28 Nordeste 48 Nordeste 0 -- -- 57
2021-01-08 12:00:00 7.6 30 Nordeste 48 Nordeste 0 -- -- 65
2021-01-08 11:00:00 6.4 18 Nordeste 33 Nordeste 0 -- -- 75
2021-01-08 10:00:00 5.3 18 Nordeste 55 Nordeste 0 -- -- 79
2021-01-08 09:00:00 5.3 32 Nordeste 50 Nordeste 0.3 -- -- 88
2021-01-08 08:00:00 5.3 21 Nordeste 36 Nordeste 0 -- -- 77
2021-01-08 07:00:00 5.3 19 Nordeste 32 Este 0 -- -- 82
2021-01-08 06:00:00 5.4 19 Nordeste 38 Nordeste 0 -- -- 85
2021-01-08 05:00:00 5.3 19 Nordeste 35 Nordeste 0 -- -- 87
2021-01-08 04:00:00 5.3 18 Nordeste 33 Nordeste 0 -- -- 87
2021-01-08 03:00:00 5.2 20 Este 27 Este 0 -- -- 87
2021-01-08 02:00:00 5.3 18 Nordeste 33 Nordeste 0 -- -- 86
2021-01-08 01:00:00 5.4 19 Nordeste 37 Nordeste 0 -- -- 86
2021-01-08 00:00:00 6.6 25 Nordeste 36 Nordeste 0.1 -- -- 86
2021-01-07 23:00:00 5.9 20 Nordeste 54 Nordeste 0 -- -- 86
2021-01-07 22:00:00 6.7 18 Nordeste 53 Nordeste 0.7 -- -- 87
2021-01-07 21:00:00 8.3 46 Nordeste 58 Nordeste 0 -- -- 72
2021-01-07 20:00:00 8.3 40 Nordeste 55 Nordeste 0.1 -- -- 76
2021-01-07 19:00:00 7.3 37 Nordeste 61 Nordeste 0 -- -- 81
2021-01-07 18:00:00 6.8 21 Nordeste 60 Nordeste 0 -- -- 78
2021-01-07 17:00:00 8.2 44 Nordeste 54 Nordeste 0 -- -- 68
2021-01-07 16:00:00 8.8 26 Nordeste 34 Nordeste 0 -- -- 76
2021-01-07 15:00:00 7.9 20 Nordeste 58 Nordeste 0.4 -- -- 84
2021-01-07 14:00:00 8.4 23 Nordeste 36 Nordeste 0 -- -- 75
2021-01-07 13:00:00 8.3 19 Nordeste 28 Nordeste 0 -- -- 75
2021-01-07 12:00:00 7.5 18 Nordeste 26 Nordeste 0 -- -- 81
2021-01-07 11:00:00 6.7 12 Nordeste 28 Nordeste 0.1 -- -- 87
2021-01-07 10:00:00 5.3 17 Nordeste 39 Nordeste 0 -- -- 91
2021-01-07 09:00:00 5.2 22 Nordeste 34 Nordeste 0.1 -- -- 88
2021-01-07 08:00:00 4.5 19 Este 46 Este 1 -- -- 92
2021-01-07 07:00:00 4.8 13 Este 43 Nordeste 0.7 -- -- 89
2021-01-07 06:00:00 5.3 18 Nordeste 47 Nordeste 0.3 -- -- 88
2021-01-07 05:00:00 5.3 14 Nordeste 29 Nordeste 0 -- -- 85
2021-01-07 04:00:00 4.6 16 Este 24 Este 0 -- -- 85
2021-01-07 03:00:00 4.4 16 Este 31 Este 0 -- -- 80
2021-01-07 02:00:00 4.6 15 Este 19 Este 0 -- -- 76
2021-01-07 01:00:00 4.8 13 Nordeste 26 Nordeste 0 -- -- 78
2021-01-07 00:00:00 4.5 13 Este 23 Nordeste 0 -- -- 82
2021-01-06 23:00:00 5 18 Este 24 Este 0 -- -- 78
2021-01-06 22:00:00 5.3 15 Este 28 Nordeste 0 -- -- 82
2021-01-06 21:00:00 6.5 18 Nordeste 44 Nordeste 0 -- -- 77
2021-01-06 20:00:00 7.1 19 Nordeste 32 Nordeste 0 -- -- 77
2021-01-06 19:00:00 6.8 18 Nordeste 31 Nordeste 0 -- -- 74
2021-01-06 18:00:00 7.6 18 Nordeste 36 Nordeste 0 -- -- 73
2021-01-06 17:00:00 8.3 26 Nordeste 41 Nordeste 0 -- -- 69
2021-01-06 16:00:00 8.6 30 Nordeste 39 Nordeste 0 -- -- 68
2021-01-06 15:00:00 8.8 24 Nordeste 37 Nordeste 0 -- -- 65
2021-01-06 14:00:00 9 21 Nordeste 37 Nordeste 0 -- -- 64
2021-01-06 13:00:00 8.7 17 Este 30 Nordeste 0 -- -- 68
2021-01-06 12:00:00 7.7 18 Nordeste 27 Este 0 -- -- 73
2021-01-06 11:00:00 6.3 19 Este 31 Este 0 -- -- 85
2021-01-06 10:00:00 5.2 18 Nordeste 32 Este 0 -- -- 83
2021-01-06 09:00:00 4.6 16 Nordeste 26 Nordeste 0 -- -- 84
2021-01-06 08:00:00 4.8 16 Nordeste 37 Nordeste 0 -- -- 85
2021-01-06 07:00:00 5 18 Nordeste 29 Nordeste 0 -- -- 82
2021-01-06 06:00:00 4.4 19 Nordeste 34 Nordeste 0 -- -- 88
2021-01-06 05:00:00 4.8 17 Nordeste 31 Nordeste 0 -- -- 85
2021-01-06 04:00:00 4.6 15 Nordeste 33 Este 0 -- -- 85
2021-01-06 03:00:00 4.6 17 Nordeste 32 Este 0 -- -- 84
2021-01-06 02:00:00 4.3 17 Este 28 Nordeste 0 -- -- 86
2021-01-06 01:00:00 5 18 Nordeste 28 Este 0 -- -- 89
2021-01-06 00:00:00 4.9 14 Nordeste 21 Nordeste 0 -- -- 90
2021-01-05 23:00:00 5 14 Este 24 Este 0 -- -- 88
2021-01-05 22:00:00 5.2 17 Este 24 Este 0.1 -- -- 87
2021-01-05 21:00:00 5.7 17 Nordeste 26 Nordeste 0 -- -- 89
2021-01-05 20:00:00 5.3 13 Nordeste 35 Nordeste 0.9 -- -- 90
2021-01-05 19:00:00 5.3 13 Nordeste 26 Nordeste 0 -- -- 84
2021-01-05 18:00:00 5.5 12 Este 27 Nordeste 0 -- -- 85
2021-01-05 17:00:00 8.2 15 Nordeste 28 Nordeste 0 -- -- 82
2021-01-05 16:00:00 8.3 8 Norte 17 Norte 0.8 -- -- 87
2021-01-05 15:00:00 9 4 Norte 8 Este 0 -- -- 80
2021-01-05 14:00:00 7.7 5 Este 15 Este 0 -- -- 82
2021-01-05 13:00:00 9.2 2 Norte 8 Este 0 -- -- 78
2021-01-05 12:00:00 7.7 8 Este 26 Nordeste 0.1 -- -- 89
2021-01-05 11:00:00 6.6 4 Este 14 Este 0.6 -- -- 92
2021-01-05 10:00:00 5.1 14 Este 17 Este 1 -- -- 92
2021-01-05 09:00:00 4.8 8 Este 24 Norte 0.4 -- -- 90
2021-01-05 08:00:00 4.5 11 Este 18 Este 0 -- -- 90
2021-01-05 07:00:00 3.6 18 Este 21 Este 0 -- -- 90
2021-01-05 06:00:00 3.1 14 Este 15 Este 0 -- -- 90
2021-01-05 05:00:00 4.8 5 Nordeste 13 Nordeste 0.3 -- -- 90
2021-01-05 04:00:00 3.8 10 Este 16 Este 0 -- -- 88
2021-01-05 03:00:00 3.6 12 Este 16 Este 0 -- -- 89
2021-01-05 02:00:00 3.2 12 Este 17 Este 0 -- -- 90
2021-01-05 01:00:00 2.9 13 Este 16 Este 0 -- -- 90
2021-01-05 00:00:00 4.3 7 Sudeste 23 Nordeste 0.2 -- -- 86
2021-01-04 23:00:00 3.5 14 Este 18 Este 0 -- -- 90
2021-01-04 22:00:00 4.2 15 Este 28 Este 0 -- -- 87
2021-01-04 21:00:00 4.2 16 Este 19 Este 0 -- -- 87
2021-01-04 20:00:00 5.1 9 Nordeste 26 Nordeste 0.2 -- -- 87
2021-01-04 19:00:00 5 14 Este 22 Nordeste 0 -- -- 85
2021-01-04 18:00:00 5.4 12 Nordeste 24 Nordeste 0 -- -- 82
2021-01-04 17:00:00 6.9 15 Nordeste 24 Nordeste 0 -- -- 80
2021-01-04 16:00:00 7.3 12 Nordeste 28 Nordeste 0 -- -- 83
2021-01-04 15:00:00 8.9 4 Este 14 Este 0.2 -- -- 80
2021-01-04 14:00:00 8.5 6 Sudeste 18 Este 0 -- -- 80
2021-01-04 13:00:00 6.3 9 Sudeste 22 Este 0.3 -- -- 86
2021-01-04 12:00:00 5.3 7 Nordeste 19 Sudeste 1.3 -- -- 89
2021-01-04 11:00:00 5.3 12 Sudeste 19 Sudeste 0.1 -- -- 91
2021-01-04 10:00:00 5 13 Sudeste 17 Sudeste 0.2 -- -- 92
2021-01-04 09:00:00 4.2 15 Este 20 Sudeste 0 -- -- 90
2021-01-04 08:00:00 4.8 17 Este 48 Nordeste 0.5 -- -- 88
2021-01-04 07:00:00 5.3 4 Sur 26 Sudeste 0 -- -- 84
2021-01-04 06:00:00 6.7 11 Norte 28 Nordeste 0 -- -- 77
2021-01-04 05:00:00 7.3 24 Norte 34 Norte 0 -- -- 80
2021-01-04 04:00:00 7.1 24 Norte 34 Norte 0 -- -- 83
2021-01-04 03:00:00 5.3 6 Norte 44 Noroeste 0.5 -- -- 84
2021-01-04 02:00:00 6.8 15 Norte 44 Norte 0.1 -- -- 78
2021-01-04 01:00:00 7.5 16 Norte 24 Norte 0 -- -- 74
2021-01-04 00:00:00 7.3 16 Norte 39 Norte 0 -- -- 71
2021-01-03 23:00:00 7.1 11 Nordeste 44 Nordeste 0 -- -- 75
2021-01-03 22:00:00 8.2 30 Norte 45 Norte 0 -- -- 78
2021-01-03 21:00:00 7.9 22 Norte 32 Norte 0 -- -- 68
2021-01-03 20:00:00 7.7 23 Norte 30 Norte 0 -- -- 70
2021-01-03 19:00:00 6.9 24 Nordeste 53 Nordeste 0.2 -- -- 85
2021-01-03 18:00:00 7.5 19 Norte 45 Nordeste 0 -- -- 86
2021-01-03 17:00:00 8.3 20 Norte 30 Nordeste 0 -- -- 83
2021-01-03 16:00:00 7.8 25 Nordeste 41 Nordeste 0.1 -- -- 89
2021-01-03 15:00:00 8.1 23 Noroeste 57 Norte 1 -- -- 88
2021-01-03 14:00:00 8.6 27 Norte 46 Norte 0.2 -- -- 80
2021-01-03 13:00:00 10 15 Noroeste 41 Noroeste 0 -- -- 70
2021-01-03 12:00:00 9.1 21 Noroeste 33 Noroeste 0 -- -- 71
2021-01-03 11:00:00 8 29 Norte 42 Norte 0 -- -- 78
2021-01-03 10:00:00 7.9 22 Norte 44 Norte 0 -- -- 75
2021-01-03 09:00:00 7.5 17 Nordeste 48 Norte 0.1 -- -- 80
2021-01-03 08:00:00 7.8 23 Norte 41 Noroeste 0.3 -- -- 80
2021-01-03 07:00:00 8.3 24 Norte 37 Norte 0 -- -- 75
2021-01-03 06:00:00 8.2 22 Norte 35 Norte 0 -- -- 74
2021-01-03 05:00:00 7.9 27 Norte 41 Norte 0 -- -- 73
2021-01-03 04:00:00 8.5 31 Norte 39 Norte 0 -- -- 75
2021-01-03 03:00:00 7.7 26 Norte 44 Norte 0 -- -- 84
2021-01-03 02:00:00 8.4 32 Norte 43 Norte 0 -- -- 84
2021-01-03 01:00:00 8.3 35 Norte 43 Norte 0.3 -- -- 85
2021-01-03 00:00:00 8 25 Nordeste 45 Nordeste 0.1 -- -- 81
2021-01-02 23:00:00 8 26 Norte 41 Norte 0.7 -- -- 84
2021-01-02 22:00:00 7.2 14 Norte 39 Nordeste 0.6 -- -- 90
2021-01-02 21:00:00 8.1 29 Nordeste 48 Norte 0.7 -- -- 85
2021-01-02 20:00:00 8.5 30 Norte 45 Norte 0 -- -- 82
2021-01-02 19:00:00 8 17 Nordeste 29 Nordeste 0.1 -- -- 82
2021-01-02 18:00:00 7.6 18 Nordeste 36 Nordeste 0.4 -- -- 85
2021-01-02 17:00:00 9.2 21 Nordeste 33 Nordeste 0 -- -- 79
2021-01-02 16:00:00 9.7 27 Nordeste 35 Nordeste 0 -- -- 74
2021-01-02 15:00:00 9.1 23 Nordeste 37 Norte 1.2 -- -- 81
2021-01-02 14:00:00 8.4 21 Nordeste 28 Nordeste 0.6 -- -- 82